Regional Weather Roundup
Issued by NWS Spokane, WA

Home | Current Version | Previous Version | Text Only | Print | Product List | Glossary On
Versions: 1 2 3 4 5 6 7 8 9 10 11 12 13 14 15 16 17 18 19 20 21 22 23 24 25 26 27 28 29 30 31 32 33 34 35 36 37 38 39 40 41 42 43 44 45 46 47 48 49 50
000
NZUS01 KOTX 301000
RWROTX

Eastern Washington/Northern Idaho Roundup
National Weather Service, Spokane WA
300 AM PDT TUE MAY 30 2017

Note: "fair" indicated few or no clouds below 12,000 feet with no
significant weather and/or obstructions to visibility.

...Northeast Washington and Northern Idaho Panhandle...

CITY           SKY/WX    TMP DP  RH WIND       PRES   REMARKS
Spokane Intl   CLEAR     64  48  56 CALM      29.95S
Spokane Downto CLEAR     57  50  77 CALM      29.95R
Coeur d Alene  CLEAR     61  47  59 E7        29.97S
Deer Park      CLEAR     50  45  83 CALM      29.95S
Sandpoint      CLEAR     50  45  81 CALM      29.98S

...Southeast Washington and southern Idaho Panhandle...

CITY           SKY/WX    TMP DP  RH WIND       PRES   REMARKS
Walla Walla    CLEAR     63  45  51 E8        29.88F
Pullman/Moscow CLEAR     56  45  66 CALM      29.97S
Lowell           N/A     52  47  83 N5        30.02R

...Columbia Basin...

CITY           SKY/WX    TMP DP  RH WIND       PRES   REMARKS
Ephrata        CLEAR     61  44  53 NE9       29.88S
Moses Lake     CLEAR     59  49  69 N9        29.88F
Pasco          PTCLDY    58  54  86 N3        29.84S
Hermiston      PTCLDY    65  51  60 E12       29.81F
Pendleton      CLEAR     59  48  67 E10       29.88F

...East Slopes Cascades...

CITY           SKY/WX    TMP DP  RH WIND       PRES   REMARKS
The Dalles     CLEAR     67  57  70 NW12      29.85S
Yakima         MOCLDY    62  51  67 W6        29.87F
Ellensburg     PTCLDY    61  49  64 CALM      29.90F
Stampede Pass  CLEAR     62  44  51 CALM      30.01F
Wenatchee      PTCLDY    66  47  50 NW6       29.89S
Omak           PTCLDY    57  47  69 NW6       29.91S
Sunnyside      MOSUNNY   63  51  63 W5        29.83F

...Southern British Columbia...

CITY           SKY/WX    TMP DP  RH WIND       PRES   REMARKS

...Western Montana...

CITY           SKY/WX    TMP DP  RH WIND       PRES   REMARKS
Kalispell      SUNNY     50  46  86 NW3       30.04S
Missoula       CLEAR     51  42  71 CALM      30.07S

...Neighboring Cities...

CITY           SKY/WX    TMP DP  RH WIND       PRES   REMARKS
Seattle        CLOUDY    53  50  89 SW9       29.98S
Portland       CLOUDY    55  50  83 NW10G16   29.96F
Boise          CLEAR     68  42  38 SE10      29.96R
Great Falls    CLOUDY    49  44  83 W7        30.11R



USA.gov is the U.S. government's official web portal to all federal, state and local government web resources and services.